{"data":{"norad_id":49212,"epoch":"2026-05-25T01:53:34.258272Z","epoch_age_seconds":68212,"freshness":"FRESH","line1":"1 49212U 21083AC  26145.07886873  .00000041  00000+0  71542-4 0  9994","line2":"2 49212  87.9160 340.0582 0002475  93.0643 267.0772 13.18685790226937","mean_motion":13.1868579,"eccentricity":0.0002475,"inclination_deg":87.916,"raan_deg":340.0582,"arg_perigee_deg":93.0643,"mean_anomaly_deg":267.0772,"bstar":7.1542e-5,"rev_number":22693,"period_min":109.19962973136,"perigee_km":1187.8708797906,"apogee_km":1191.6169808511,"semimajor_km":7567.8809303208,"source":"CELESTRAK","updated_at":"2026-05-25T13:38:22.516796Z"}}